Back to catalog

STARLINK-32714

AliveCommunicationsVLEO
NORAD 62499·PAYLOAD·🇺🇸 United States

Launched Jan 6, 2025 from Cape Canaveral Space Force Station

Loading…

Next Passes (next 24 hours)

TLE

FreshSource: CelesTrak SupGP

Epoch: Sep 14, 2026, 22:34 UTC

1 62499C 25003N   26257.94076389  .00011355  00000+0  41130-3 0  2571
2 62499  43.0009 300.5367 0001456 264.0727 358.7502 15.27569612    11

Track STARLINK-32714 in real time with AllMySat

Download on the App Store